Погода в Нашвилле

США     36°09′53″N   86°46′59″W
темп.,
°C
ветер,
м/с
пор.,
м/с
влажн.,
%
обл.,
%
осадки,
мм/ч
давл.,
гПа
погр.,
м
15 мая, сб
сб1501:00+11в26710 0.0 1024149
04:00+11в11660 0.0 102515
07:00+12вюв13653 0.0 1026100
10:00+19юв22420 0.0 1025508
13:00+23ю2333100 0.0 10232114
16:00+23ююз3339100 0.0 10211864
19:00+19в1161100 0.0 102114
22:00+17св3567100 0.0 1022193
16 мая, вс
вс1601:00+16вюв3868100 0.1 1021361
04:00+16ююв2471100 0.0 1021137
07:00+15ююв168697 0.1 1023191
10:00+21юз365998 0.0 1023747
13:00+20ююз1470100 0.1 1022348
16:00+18юв248897 0.4 1020138
19:00+20ююв1278100 0.4 102050
22:00+17ююв118417 0.0 102015
17 мая, пн
пн1701:00+16юв1183100 0.0 102013
04:00+16ююв2279100 0.0 101952
07:00+16ююв21073100 0.0 1020348
10:00+17ю1593100 1.9 1022263
13:00+19вюв2689100 2.9 1021401
16:00+22ююв256698 0.0 1019176
19:00+21юв227691 0.1 101943
22:00+18вюв2879100 0.0 1019175
18 мая, вт
вт1801:00+18ююв31271100 0.0 1019403
04:00+18ююв31267100 0.0 1019504
07:00+18ююв41368100 0.0 1021626
10:00+18ююв41272100 0.0 1022597
13:00+19ю4117399 0.0 1022727
16:00+22ююз497499 0.5 1021991
19:00+18юв1190100 0.7 102118
22:00+18вюв21189100 0.0 1022324
19 мая, ср
ср1901:00+18юв31383100 0.0 1022538
04:00+18юв31386100 0.3 1022520
07:00+18юв31284100 0.3 1024606
10:00+19юв3128198 0.0 1025752
13:00+24юв376472 0.1 10241203
16:00+21ю138597 1.4 1024104
19:00+22юв25815 1.4 1023188
22:00+19вюв27895 0.0 1024158